Theta_e
308 308 308 308 309 309 309 309 309 309 309 309 309 309 309 309 309 309 310 310 310 311 310 311 311 311 309 309 309 308 307 307 307 307 307 307 307 307 307 306 308 309
308 308 308 308 308 308 308 308 308 308 308 309 309 309 309 309 309 309 309 309 310 310 310 310 310 310 309 309 308 308 307 307 306 307 307 307 307 307 306 306 306 307
308 308 308 308 308 308 308 308 308 308 308 308 309 308 309 309 309 308 308 309 309 309 309 309 309 309 309 309 308 308 307 307 306 306 306 306 307 307 306 306 305 306
309 309 309 308 308 308 308 308 308 308 308 308 308 308 308 308 308 308 308 308 308 308 308 308 308 308 308 308 308 308 307 307 307 307 306 306 306 306 306 306 306 305
308 308 309 309 309 308 308 308 308 308 308 308 308 308 308 308 308 308 307 307 307 307 307 307 308 308 307 307 307 307 307 307 307 306 306 306 306 306 306 306 306 306
307 308 308 308 309 308 308 308 308 308 308 309 309 308 308 308 308 308 307 307 307 307 307 307 307 307 307 307 306 306 306 306 306 306 306 306 306 306 306 306 306 306
307 307 307 308 308 308 308 308 308 309 309 309 309 308 308 308 308 308 307 307 307 307 306 306 306 306 306 306 306 306 306 306 306 306 306 306 306 306 305 305 305 306
306 306 306 307 307 308 308 308 309 309 309 309 308 308 308 308 307 307 307 307 307 306 306 306 306 306 306 306 306 305 306 306 306 306 305 305 306 306 305 305 305 305
306 305 306 306 306 307 307 307 308 308 308 308 308 308 308 308 307 307 307 307 306 306 306 306 306 306 306 306 305 305 305 306 306 305 305 305 305 306 305 305 305 305
305 305 305 305 306 306 306 306 307 307 308 308 308 308 308 307 307 307 307 306 306 306 306 306 306 306 306 306 305 306 306 306 305 305 305 305 305 305 305 305 305 305
305 305 305 305 305 305 305 306 306 307 307 307 307 307 307 307 307 306 306 306 306 306 306 306 306 306 306 305 305 306 306 306 305 305 305 305 305 305 305 305 305 305
305 305 305 305 305 305 305 305 305 306 306 307 307 307 307 307 307 306 306 306 306 306 306 306 306 306 306 306 305 305 305 305 305 305 305 304 305 305 305 305 305 305
305 305 305 305 305 305 305 305 305 305 306 306 307 307 307 306 307 306 306 306 306 306 306 306 306 306 306 305 305 305 305 305 305 305 304 304 304 304 304 305 305 304
304 305 305 305 305 305 305 305 305 305 305 306 306 306 306 306 306 306 306 306 305 306 306 306 306 306 305 305 305 305 305 304 304 304 304 304 304 304 304 304 304 304
303 304 305 305 304 304 304 304 304 305 305 305 305 306 306 306 306 306 305 305 305 305 305 305 305 305 305 305 305 305 305 304 304 304 304 304 304 304 304 304 304 304
303 303 303 303 303 303 304 304 304 304 304 305 305 305 305 305 305 305 305 305 305 305 305 305 305 305 306 306 306 305 305 304 304 304 304 304 303 303 303 303 303 303
302 302 302 302 302 302 303 303 304 304 304 304 304 304 304 304 304 304 304 304 304 305 305 304 305 305 305 305 305 305 305 304 304 304 304 303 303 303 303 303 303 303
300 300 301 301 301 301 302 303 303 303 303 303 303 304 304 303 303 303 303 304 304 304 304 304 304 305 305 305 305 305 304 304 304 304 304 303 303 303 303 303 303 303
299 299 299 300 300 301 301 302 302 302 302 302 302 303 303 303 303 302 303 303 303 303 303 304 304 304 304 305 304 304 304 304 304 304 304 303 303 303 303 303 303 303
298 298 299 299 299 300 300 300 301 301 301 301 301 302 301 301 302 302 302 302 302 302 303 303 303 304 304 304 304 304 304 303 303 304 304 303 303 304 304 304 304 303
297 297 298 298 298 298 299 299 299 300 300 300 300 300 300 301 301 301 301 301 301 301 302 302 303 304 304 304 304 304 303 303 303 303 303 302 302 303 303 303 303 303
296 296 297 297 297 296 296 297 298 298 298 298 299 299 299 299 300 300 299 299 300 300 300 300 301 302 303 303 303 303 302 301 301 301 300 299 299 299 299 300 301 301
294 295 295 295 295 295 295 296 296 297 297 297 297 297 297 297 297 297 297 298 298 298 298 298 299 301 302 302 302 302 300 299 298 298 297 296 296 296 297 297 299 299
292 293 294 294 294 294 295 295 295 296 296 296 296 296 296 295 295 295 295 295 296 296 296 297 297 299 301 301 300 300 299 298 297 296 296 295 295 295 295 296 297 298
291 292 293 293 293 294 294 295 294 294 295 295 295 295 294 294 294 294 293 293 294 294 295 296 296 297 298 299 299 298 298 297 297 296 295 294 294 293 293 294 295 296
290 291 292 292 293 293 293 293 294 293 294 294 294 294 293 292 292 292 291 290 291 292 293 294 294 294 295 296 297 297 297 297 296 295 294 293 292 292 291 291 292 293
Wind_Speed
23 23 22 23 21 19 22 23 21 22 24 24 24 25 27 28 28 30 31 31 32 33 33 33 33 33 33 34 34 33 33 33 34 33 32 31 29 27 27 26 23 19
23 24 23 23 22 21 23 24 24 24 24 25 25 24 26 27 27 29 30 31 32 33 33 33 33 33 34 34 34 33 32 32 33 32 32 31 29 29 28 28 28 24
23 24 24 24 24 24 24 24 24 24 24 24 24 24 24 25 26 27 28 30 31 32 32 33 33 33 34 34 34 34 33 33 33 32 32 31 30 29 29 28 28 28
23 23 24 24 24 24 24 24 24 25 24 24 24 24 23 23 24 25 27 29 30 30 31 32 33 33 34 34 34 34 34 34 33 33 32 31 31 30 29 29 28 29
22 23 23 24 25 24 25 25 26 26 25 24 23 23 23 22 23 24 26 27 29 29 30 31 32 33 33 34 34 33 32 33 32 33 32 30 31 31 29 29 27 28
22 23 23 24 25 25 25 26 26 26 25 24 23 23 23 23 23 24 25 27 28 29 30 31 31 32 33 33 34 32 31 32 31 32 33 31 30 31 30 30 28 28
22 23 24 24 25 25 26 26 26 26 25 24 24 25 24 24 25 25 26 26 28 29 31 31 32 32 33 33 33 32 31 32 32 32 33 31 30 31 31 31 29 28
22 23 24 24 25 26 26 27 26 26 26 25 26 26 26 26 26 26 27 27 29 30 31 32 33 33 34 34 34 33 32 33 33 33 33 32 30 30 32 31 29 28
22 23 24 25 25 26 27 28 27 27 26 26 27 27 27 27 27 28 28 29 29 30 31 32 33 33 34 35 35 35 34 35 35 34 34 33 32 31 31 31 30 29
23 24 24 25 26 27 27 27 28 28 28 27 27 28 28 28 29 29 29 30 30 30 31 32 32 33 34 35 36 36 36 36 36 35 35 35 35 33 32 32 31 30
25 25 26 27 27 28 28 27 28 29 29 29 29 29 30 29 30 30 30 31 32 32 32 32 33 33 34 35 36 37 36 36 36 36 36 36 35 34 33 33 33 31
28 28 28 29 29 29 28 28 28 29 30 30 31 32 32 31 31 32 32 32 32 32 32 32 32 33 34 35 35 36 36 36 35 36 36 35 35 34 33 33 33 32
30 30 30 31 31 30 29 28 28 29 31 32 32 33 33 33 33 33 33 33 33 32 32 32 32 33 33 34 34 35 35 35 34 33 34 34 34 34 33 32 32 32
30 30 31 32 31 30 29 29 28 29 30 31 32 33 34 33 33 33 33 32 32 32 32 32 32 32 33 33 33 34 34 34 33 32 31 32 32 32 32 32 31 32
30 30 31 31 30 29 29 29 29 29 30 31 31 32 33 32 32 32 32 31 31 30 31 31 32 33 33 33 33 33 33 33 32 31 31 30 30 30 31 31 31 31
30 29 29 28 28 29 29 29 29 28 29 30 30 31 32 32 31 31 31 31 31 31 31 31 32 33 33 32 32 32 32 32 31 30 29 28 28 28 28 29 29 29
28 27 26 27 27 28 28 28 28 28 28 29 29 30 31 30 30 30 30 30 31 31 32 32 33 33 32 31 31 30 30 30 29 28 27 26 26 26 26 27 27 27
25 25 25 26 27 27 27 28 27 27 27 28 29 30 30 30 29 29 30 30 30 31 31 32 32 31 30 30 29 29 28 28 27 27 26 26 26 26 26 26 26 26
23 23 24 25 26 26 26 26 26 26 27 28 29 29 29 29 29 29 29 30 30 30 30 31 31 30 29 28 28 28 27 27 26 27 27 26 26 26 26 25 25 25
20 21 22 23 24 24 24 25 25 26 26 26 26 27 27 27 28 28 28 28 29 29 29 29 29 29 29 28 27 27 27 27 26 27 27 26 26 27 26 25 25 25
16 17 19 20 20 20 20 20 21 21 21 21 21 23 25 25 26 26 26 26 26 26 26 27 27 28 28 27 27 26 26 26 25 25 23 20 21 23 24 24 25 24
13 15 16 16 16 15 15 15 15 16 18 19 18 17 17 19 20 21 21 22 22 22 22 22 23 25 25 25 25 26 25 23 20 19 17 15 15 17 17 19 22 19
9 11 12 12 12 13 14 14 13 14 16 18 18 15 15 16 16 17 17 19 19 19 19 19 19 21 23 23 24 26 26 22 18 17 16 15 15 14 12 13 17 16
5 6 8 9 10 12 12 12 12 13 16 18 17 15 14 14 15 15 14 15 16 16 17 17 16 18 21 22 24 26 27 24 22 20 18 17 16 14 13 14 15 15
2 4 6 7 8 9 10 10 11 13 16 16 16 15 14 14 14 14 12 11 12 14 15 15 15 15 18 21 24 26 26 25 24 23 22 21 20 17 15 15 16 15
1 2 3 4 5 7 9 11 12 13 15 16 16 15 15 14 13 12 12 12 11 12 12 13 14 16 17 20 23 24 25 26 25 25 23 21 19 19 18 17 17 17
Wind_Direction
213 214 215 215 215 216 218 217 215 215 216 214 214 215 217 218 217 218 215 213 215 216 216 217 217 217 215 215 214 212 213 214 214 214 215 216 216 218 221 220 217 213
215 216 217 217 217 219 222 222 222 222 221 221 220 221 223 222 221 221 218 215 216 217 217 217 217 217 215 214 213 212 212 213 214 214 215 216 217 219 222 223 222 219
219 219 220 220 221 223 225 224 224 224 224 224 224 223 225 225 224 223 221 218 217 217 217 217 217 216 215 214 213 212 212 213 214 215 216 217 218 220 222 223 222 222
220 222 223 224 225 227 227 226 225 224 223 224 225 225 225 226 225 224 222 219 217 217 217 216 216 216 215 214 213 212 212 214 215 216 216 216 218 220 221 221 220 222
221 222 224 225 226 227 226 225 225 225 224 225 227 227 227 227 225 223 221 219 217 216 217 216 216 215 214 213 213 211 211 213 215 216 215 214 217 219 219 219 218 220
222 222 223 224 226 225 225 225 226 226 226 226 227 227 227 227 226 224 222 220 218 216 216 216 214 214 214 213 212 210 211 213 214 215 214 213 217 219 219 219 218 220
222 222 222 223 224 225 225 226 227 227 227 226 226 226 226 225 225 224 223 222 219 216 216 215 213 212 213 212 211 210 211 213 214 214 214 213 216 219 219 219 218 219
223 222 222 222 222 223 224 225 226 226 225 225 225 226 225 224 224 223 222 220 218 216 215 215 214 213 212 211 210 210 211 213 214 214 213 213 214 217 218 218 216 217
224 223 222 221 221 222 224 225 225 225 224 224 224 226 226 225 224 223 221 219 217 216 215 214 214 213 213 212 211 210 211 213 214 213 213 212 213 216 216 216 215 216
227 226 224 222 221 223 224 225 226 225 224 223 223 224 225 224 223 222 221 218 216 215 214 213 213 212 213 213 212 212 213 214 215 214 214 214 215 216 216 216 215 215
230 228 227 226 225 225 225 225 225 225 225 223 221 222 224 223 222 220 219 218 216 215 214 214 214 213 213 213 213 214 214 215 215 215 215 216 217 217 217 217 216 215
233 230 230 231 230 229 228 225 224 224 225 223 221 221 222 221 220 219 218 218 217 217 216 216 215 215 215 214 214 214 215 215 216 216 216 216 218 219 218 218 218 218
235 233 233 233 233 231 230 227 224 224 224 224 222 221 221 220 219 219 219 218 218 218 217 217 216 216 216 215 215 215 215 214 215 215 216 217 218 219 219 220 220 220
239 238 237 236 235 233 231 229 226 225 224 224 223 221 221 221 220 219 219 219 218 218 218 218 217 216 216 215 215 215 215 215 215 215 215 217 218 219 220 221 222 222
246 244 240 238 236 233 231 229 227 225 224 224 224 223 222 222 222 220 219 219 218 219 219 219 219 218 217 216 215 215 215 214 215 215 216 216 218 219 220 221 222 222
250 246 242 239 236 232 229 228 226 225 224 223 224 223 223 222 222 221 220 219 219 219 220 220 221 222 221 220 218 215 215 214 214 215 215 215 216 216 218 220 221 222
248 244 241 238 236 231 228 226 225 223 222 222 221 222 222 222 221 220 219 219 219 219 220 220 222 223 223 222 220 217 215 214 214 214 213 214 215 214 216 218 218 221
244 241 237 235 233 229 226 224 223 221 219 218 218 219 219 219 219 219 218 218 218 218 220 220 222 223 223 221 220 218 216 215 214 214 213 213 214 214 215 217 217 217
244 238 235 232 229 226 224 222 219 217 216 216 216 216 215 215 215 216 217 218 217 217 218 220 221 222 222 221 220 218 217 215 214 214 214 213 214 215 215 216 216 215
243 237 234 231 226 222 219 217 216 215 214 214 214 213 212 212 212 213 214 215 216 216 217 219 220 220 219 218 217 216 214 212 213 214 214 213 215 216 215 215 215 212
239 234 232 228 223 218 214 213 213 211 208 208 208 209 209 209 209 209 210 211 212 213 214 215 217 218 217 215 213 212 210 208 210 212 210 209 211 213 212 212 212 209
237 231 227 224 219 213 211 211 208 205 203 202 200 201 203 204 204 204 204 204 205 206 207 210 213 214 213 212 209 206 202 200 200 200 196 192 194 198 201 206 206 202
242 231 223 217 212 210 210 210 205 202 202 200 197 195 194 194 193 194 195 196 197 197 198 200 205 207 204 203 201 197 193 188 184 181 178 175 176 178 179 187 194 194
259 235 221 212 208 208 207 204 201 200 200 197 193 190 187 184 181 178 179 182 184 187 189 190 193 197 196 193 193 191 187 182 176 169 164 160 157 157 159 163 173 182
283 236 222 215 212 209 204 199 196 194 193 191 186 179 172 168 165 160 156 158 164 168 174 177 177 180 186 187 188 188 184 178 171 162 155 153 150 145 143 146 150 160
45 230 228 227 223 210 198 193 190 185 181 176 172 167 160 155 152 147 140 137 142 147 151 157 160 161 171 180 182 183 181 174 168 162 156 152 151 146 140 138 140 143